Visibility
15.0 15.0 15.0 15.0 15.0 15.0 15.0 15.0 15.0 15.0 15.0 15.0 15.0 15.0 15.0 15.0 15.0 15.0 15.0 15.0 15.0 15.0 15.0 15.0 15.0 15.0 15.0 15.0 15.0 15.0 15.0 15.0 15.0 15.0 15.0 15.0 15.0 10.9
15.0 15.0 15.0 15.0 15.0 15.0 15.0 15.0 15.0 15.0 15.0 15.0 15.0 15.0 15.0 15.0 15.0 15.0 15.0 15.0 15.0 15.0 15.0 15.0 15.0 15.0 15.0 15.0 15.0 15.0 15.0 15.0 15.0 15.0 15.0 15.0 15.0 15.0
15.0 15.0 15.0 15.0 15.0 15.0 15.0 15.0 15.0 15.0 15.0 15.0 15.0 15.0 15.0 15.0 15.0 15.0 15.0 15.0 15.0 15.0 15.0 15.0 15.0 15.0 15.0 15.0 15.0 15.0 15.0 15.0 15.0 15.0 15.0 15.0 15.0 15.0
15.0 15.0 15.0 15.0 15.0 15.0 15.0 15.0 15.0 15.0 15.0 15.0 15.0 15.0 15.0 15.0 15.0 15.0 15.0 15.0 15.0 15.0 15.0 15.0 15.0 15.0 15.0 15.0 15.0 15.0 15.0 15.0 15.0 15.0 15.0 15.0 15.0 15.0
15.0 15.0 15.0 15.0 15.0 15.0 15.0 15.0 15.0 15.0 15.0 15.0 15.0 15.0 15.0 15.0 15.0 15.0 15.0 15.0 15.0 15.0 15.0 15.0 15.0 15.0 15.0 15.0 15.0 15.0 15.0 15.0 15.0 15.0 15.0 15.0 15.0 15.0
15.0 15.0 15.0 15.0 15.0 15.0 15.0 15.0 15.0 15.0 15.0 15.0 15.0 15.0 15.0 15.0 15.0 15.0 15.0 15.0 15.0 15.0 15.0 15.0 15.0 15.0 15.0 15.0 15.0 15.0 15.0 15.0 15.0 15.0 15.0 15.0 15.0 15.0
15.0 15.0 15.0 15.0 15.0 15.0 15.0 11.9 12.2 15.0 15.0 15.0 15.0 15.0 15.0 15.0 15.0 15.0 15.0 15.0 15.0 15.0 15.0 15.0 15.0 15.0 15.0 15.0 15.0 15.0 15.0 15.0 15.0 15.0 15.0 15.0 15.0 15.0
15.0 15.0 15.0 15.0 15.0 15.0 15.0 10.7 15.0 15.0 15.0 15.0 15.0 15.0 15.0 15.0 15.0 15.0 15.0 15.0 8.7 15.0 15.0 15.0 15.0 15.0 15.0 15.0 15.0 15.0 15.0 15.0 15.0 15.0 15.0 15.0 15.0 15.0
15.0 15.0 15.0 15.0 15.0 15.0 11.9 13.8 15.0 15.0 15.0 15.0 8.8 15.0 15.0 15.0 15.0 8.6 13.0 15.0 15.0 15.0 15.0 15.0 15.0 15.0 15.0 15.0 15.0 15.0 15.0 15.0 15.0 15.0 15.0 15.0 15.0 15.0
15.0 15.0 15.0 15.0 15.0 15.0 13.0 15.0 15.0 15.0 15.0 15.0 14.2 15.0 15.0 15.0 15.0 11.6 8.3 12.1 15.0 15.0 15.0 3.9 15.0 15.0 15.0 15.0 15.0 15.0 15.0 15.0 15.0 8.8 12.7 13.6 15.0 15.0
15.0 15.0 15.0 15.0 15.0 15.0 15.0 15.0 15.0 15.0 13.5 15.0 15.0 15.0 15.0 15.0 15.0 10.1 15.0 12.5 15.0 15.0 15.0 7.5 15.0 6.7 15.0 15.0 15.0 15.0 15.0 15.0 15.0 15.0 15.0 15.0 15.0 15.0
15.0 15.0 15.0 15.0 15.0 15.0 15.0 15.0 15.0 15.0 1.8 10.5 15.0 15.0 15.0 15.0 15.0 9.2 7.8 1.0 10.9 5.0 15.0 14.6 6.1 3.9 0.7 15.0 15.0 15.0 15.0 15.0 15.0 15.0 15.0 15.0 15.0 15.0
15.0 15.0 15.0 15.0 15.0 15.0 15.0 15.0 15.0 15.0 15.0 15.0 15.0 15.0 15.0 15.0 15.0 13.4 11.4 2.8 0.7 3.7 15.0 3.2 0.9 10.7 2.0 3.7 15.0 15.0 15.0 15.0 15.0 15.0 15.0 15.0 15.0 15.0
15.0 15.0 15.0 15.0 15.0 15.0 15.0 15.0 15.0 15.0 15.0 15.0 15.0 15.0 15.0 15.0 15.0 14.4 15.0 10.7 10.1 5.8 13.2 4.9 0.1 0.7 0.3 0.9 15.0 15.0 15.0 15.0 13.9 15.0 15.0 15.0 15.0 15.0
15.0 15.0 15.0 15.0 15.0 15.0 15.0 15.0 15.0 15.0 15.0 15.0 15.0 15.0 15.0 15.0 9.7 15.0 15.0 15.0 15.0 15.0 14.9 15.0 0.1 0.3 0.6 0.4 3.9 7.5 14.5 15.0 15.0 14.9 12.7 9.3 4.7 13.5
15.0 15.0 15.0 15.0 15.0 15.0 15.0 15.0 15.0 15.0 15.0 15.0 14.7 15.0 15.0 15.0 13.7 15.0 13.6 15.0 7.0 14.8 15.0 15.0 0.6 0.2 0.2 2.7 3.2 1.8 13.2 0.8 13.3 6.2 14.4 6.9 14.8 14.1
15.0 15.0 15.0 15.0 15.0 15.0 15.0 15.0 15.0 15.0 15.0 15.0 15.0 15.0 15.0 15.0 15.0 14.7 15.0 15.0 9.6 13.3 11.2 15.0 15.0 8.8 2.9 0.4 0.2 7.2 3.9 3.4 4.0 2.6 0.4 2.5 13.9 14.4
12.6 15.0 15.0 15.0 15.0 15.0 15.0 15.0 15.0 15.0 15.0 15.0 15.0 15.0 15.0 15.0 15.0 14.9 15.0 13.0 7.2 9.4 14.0 14.5 4.2 1.7 14.1 15.0 14.1 11.9 4.6 2.0 11.6 6.2 2.5 0.5 8.1 15.0
15.0 15.0 12.9 10.6 8.9 13.3 15.0 15.0 15.0 15.0 15.0 15.0 15.0 15.0 13.9 14.4 12.2 13.9 15.0 15.0 12.8 15.0 15.0 8.4 0.2 0.2 0.2 1.1 15.0 11.7 0.2 5.3 10.6 5.4 8.0 1.1 0.8 14.2
15.0 15.0 12.0 8.4 7.2 13.4 15.0 15.0 15.0 15.0 15.0 15.0 15.0 15.0 10.4 7.5 9.7 14.2 15.0 5.8 4.1 9.6 13.3 15.0 2.6 0.2 0.1 0.1 0.1 9.2 15.0 0.1 0.8 0.7 4.6 8.4 7.0 15.0
13.7 11.8 6.9 2.7 3.9 7.5 6.3 7.0 11.2 11.0 14.1 13.6 14.6 13.7 9.6 8.1 8.8 14.2 7.1 3.7 2.9 11.0 5.7 11.8 15.0 8.3 0.3 0.2 0.4 13.7 15.0 9.9 1.4 0.1 0.5 0.2 1.2 9.3
5.5 2.3 2.8 1.8 1.8 3.4 6.3 8.8 11.7 15.0 15.0 15.0 15.0 10.2 12.0 10.4 10.3 3.3 3.1 1.4 2.9 6.3 4.2 15.0 15.0 8.1 0.6 0.2 0.3 2.4 12.9 15.0 15.0 15.0 12.7 8.7 0.3 1.3
1.1 1.1 1.1 1.5 2.7 6.5 15.0 15.0 15.0 15.0 15.0 15.0 10.1 14.1 13.6 14.0 11.1 2.7 2.0 3.7 6.4 8.8 5.6 1.5 14.7 15.0 15.0 0.2 0.1 0.1 0.5 1.8 4.1 1.1 14.6 15.0 15.0 5.0